owner,sensor,date,latitude,longitude,vertical_datum,wind_speed,wind_to_direction,wind_speed_of_gust,qcFlag 
NDBC,ioos:station:NOAA.NDBC:PLSF1:1,2016-12-01T00:00:00Z,24.6930,-82.7730,10.0,3.1,100.0,3.1,'1111122,1111122,1111122' 
NDBC,ioos:station:NOAA.NDBC:PLSF1:1,2016-12-01T01:00:00Z,24.6930,-82.7730,10.0,4.6,100.0,4.6,'1111122,1111122,1111122' 
NDBC,ioos:station:NOAA.NDBC:PLSF1:1,2016-12-01T02:00:00Z,24.6930,-82.7730,10.0,4.1,110.0,4.6,'1111122,1111122,1111122' 
NDBC,ioos:station:NOAA.NDBC:PLSF1:1,2016-12-01T03:00:00Z,24.6930,-82.7730,10.0,3.1,80.0,3.1,'1111122,1111122,1111122' 
NDBC,ioos:station:NOAA.NDBC:PLSF1:1,2016-12-01T04:00:00Z,24.6930,-82.7730,10.0,4.1,100.0,4.1,'1111122,1111122,1111122' 
NDBC,ioos:station:NOAA.NDBC:PLSF1:1,2016-12-01T05:00:00Z,24.6930,-82.7730,10.0,4.1,110.0,4.1,'1111122,1111122,1111122' 
NDBC,ioos:station:NOAA.NDBC:PLSF1:1,2016-12-01T06:00:00Z,24.6930,-82.7730,10.0,3.6,110.0,4.1,'1111122,1111122,1111122' 
NDBC,ioos:station:NOAA.NDBC:PLSF1:1,2016-12-01T07:00:00Z,24.6930,-82.7730,10.0,3.1,80.0,3.6,'1111122,1111122,1111122' 
NDBC,ioos:station:NOAA.NDBC:PLSF1:1,2016-12-01T08:00:00Z,24.6930,-82.7730,10.0,2.6,130.0,3.6,'1111122,1111122,1111122' 
NDBC,ioos:station:NOAA.NDBC:PLSF1:1,2016-12-01T09:00:00Z,24.6930,-82.7730,10.0,4.1,110.0,4.6,'1111122,1111122,1111122' 
NDBC,ioos:station:NOAA.NDBC:PLSF1:1,2016-12-01T10:00:00Z,24.6930,-82.7730,10.0,6.7,300.0,7.2,'1111122,1111122,1111122' 
NDBC,ioos:station:NOAA.NDBC:PLSF1:1,2016-12-01T11:00:00Z,24.6930,-82.7730,10.0,7.2,310.0,8.2,'1111122,1111122,1111122' 
NDBC,ioos:station:NOAA.NDBC:PLSF1:1,2016-12-01T12:00:00Z,24.6930,-82.7730,10.0,5.7,360.0,6.2,'1111122,1111122,1111122' 
NDBC,ioos:station:NOAA.NDBC:PLSF1:1,2016-12-01T13:00:00Z,24.6930,-82.7730,10.0,5.7,360.0,6.2,'1111122,1111122,1111122' 
NDBC,ioos:station:NOAA.NDBC:PLSF1:1,2016-12-01T14:00:00Z,24.6930,-82.7730,10.0,5.1,20.0,5.7,'1111122,1111122,1111122' 
NDBC,ioos:station:NOAA.NDBC:PLSF1:1,2016-12-01T15:00:00Z,24.6930,-82.7730,10.0,5.1,50.0,5.1,'1111122,1111122,1111122' 
NDBC,ioos:station:NOAA.NDBC:PLSF1:1,2016-12-01T16:00:00Z,24.6930,-82.7730,10.0,4.1,40.0,4.1,'1111122,1111122,1111122' 
NDBC,ioos:station:NOAA.NDBC:PLSF1:1,2016-12-01T18:00:00Z,24.6930,-82.7730,10.0,3.6,80.0,4.1,'1111122,1111122,1111122' 
NDBC,ioos:station:NOAA.NDBC:PLSF1:1,2016-12-01T19:00:00Z,24.6930,-82.7730,10.0,2.6,100.0,3.1,'1111122,1111122,1111122' 
NDBC,ioos:station:NOAA.NDBC:PLSF1:1,2016-12-01T20:00:00Z,24.6930,-82.7730,10.0,2.1,80.0,3.1,'1111122,1111122,1111122' 
NDBC,ioos:station:NOAA.NDBC:PLSF1:1,2016-12-01T21:00:00Z,24.6930,-82.7730,10.0,1.5,100.0,2.1,'1111122,1111122,1111122' 
NDBC,ioos:station:NOAA.NDBC:PLSF1:1,2016-12-01T22:00:00Z,24.6930,-82.7730,10.0,3.1,90.0,3.6,'1111122,1111122,1111122' 
NDBC,ioos:station:NOAA.NDBC:PLSF1:1,2016-12-01T23:00:00Z,24.6930,-82.7730,10.0,1.5,90.0,2.6,'1111122,1111122,1111122' 
NDBC,ioos:station:NOAA.NDBC:PLSF1:1,2016-12-02T00:00:00Z,24.6930,-82.7730,10.0,1.0,100.0,1.5,'1111122,1111122,1111122' 
NDBC,ioos:station:NOAA.NDBC:PLSF1:1,2016-12-02T01:00:00Z,24.6930,-82.7730,10.0,1.5,110.0,1.5,'1111122,1111122,1111122' 
NDBC,ioos:station:NOAA.NDBC:PLSF1:1,2016-12-02T02:00:00Z,24.6930,-82.7730,10.0,3.1,70.0,4.1,'1111122,1111122,1111122' 
NDBC,ioos:station:NOAA.NDBC:PLSF1:1,2016-12-02T03:00:00Z,24.6930,-82.7730,10.0,3.1,70.0,3.1,'1111122,1111122,1111122' 
NDBC,ioos:station:NOAA.NDBC:PLSF1:1,2016-12-02T04:00:00Z,24.6930,-82.7730,10.0,3.1,60.0,4.1,'1111122,1111122,1111122' 
NDBC,ioos:station:NOAA.NDBC:PLSF1:1,2016-12-02T05:00:00Z,24.6930,-82.7730,10.0,3.6,40.0,4.1,'1111122,1111122,1111122' 
NDBC,ioos:station:NOAA.NDBC:PLSF1:1,2016-12-02T06:00:00Z,24.6930,-82.7730,10.0,4.6,50.0,5.1,'1111122,1111122,1111122' 
NDBC,ioos:station:NOAA.NDBC:PLSF1:1,2016-12-02T07:00:00Z,24.6930,-82.7730,10.0,6.7,50.0,7.2,'1111122,1111122,1111122' 
NDBC,ioos:station:NOAA.NDBC:PLSF1:1,2016-12-02T08:00:00Z,24.6930,-82.7730,10.0,5.1,40.0,5.7,'1111122,1111122,1111122' 
NDBC,ioos:station:NOAA.NDBC:PLSF1:1,2016-12-02T09:00:00Z,24.6930,-82.7730,10.0,6.7,30.0,7.2,'1111122,1111122,1111122' 
NDBC,ioos:station:NOAA.NDBC:PLSF1:1,2016-12-02T10:00:00Z,24.6930,-82.7730,10.0,7.7,30.0,8.2,'1111122,1111122,1111122' 
NDBC,ioos:station:NOAA.NDBC:PLSF1:1,2016-12-02T11:00:00Z,24.6930,-82.7730,10.0,8.2,30.0,8.8,'1111122,1111122,1111122' 
NDBC,ioos:station:NOAA.NDBC:PLSF1:1,2016-12-02T12:00:00Z,24.6930,-82.7730,10.0,8.2,40.0,8.8,'1111122,1111122,1111122' 
NDBC,ioos:station:NOAA.NDBC:PLSF1:1,2016-12-02T13:00:00Z,24.6930,-82.7730,10.0,8.8,30.0,9.8,'1111122,1111122,1111122' 
NDBC,ioos:station:NOAA.NDBC:PLSF1:1,2016-12-02T14:00:00Z,24.6930,-82.7730,10.0,9.3,30.0,9.8,'1111122,1111122,1111122' 
NDBC,ioos:station:NOAA.NDBC:PLSF1:1,2016-12-02T15:00:00Z,24.6930,-82.7730,10.0,7.2,40.0,7.7,'1111122,1111122,1111122' 
NDBC,ioos:station:NOAA.NDBC:PLSF1:1,2016-12-02T16:00:00Z,24.6930,-82.7730,10.0,6.7,50.0,7.2,'1111122,1111122,1111122' 
NDBC,ioos:station:NOAA.NDBC:PLSF1:1,2016-12-02T17:00:00Z,24.6930,-82.7730,10.0,7.2,60.0,8.2,'1111122,1111122,1111122' 
NDBC,ioos:station:NOAA.NDBC:PLSF1:1,2016-12-02T18:00:00Z,24.6930,-82.7730,10.0,6.7,70.0,7.7,'1111122,1111122,1111122' 
NDBC,ioos:station:NOAA.NDBC:PLSF1:1,2016-12-02T19:00:00Z,24.6930,-82.7730,10.0,6.7,50.0,7.2,'1111122,1111122,1111122' 
NDBC,ioos:station:NOAA.NDBC:PLSF1:1,2016-12-02T20:00:00Z,24.6930,-82.7730,10.0,6.7,50.0,7.2,'1111122,1111122,1111122' 
NDBC,ioos:station:NOAA.NDBC:PLSF1:1,2016-12-02T21:00:00Z,24.6930,-82.7730,10.0,6.7,40.0,7.2,'1111122,1111122,1111122' 
NDBC,ioos:station:NOAA.NDBC:PLSF1:1,2016-12-02T22:00:00Z,24.6930,-82.7730,10.0,8.2,50.0,8.8,'1111122,1111122,1111122' 
NDBC,ioos:station:NOAA.NDBC:PLSF1:1,2016-12-02T23:00:00Z,24.6930,-82.7730,10.0,7.2,40.0,7.7,'1111122,1111122,1111122' 
NDBC,ioos:station:NOAA.NDBC:PLSF1:1,2016-12-03T00:00:00Z,24.6930,-82.7730,10.0,7.2,40.0,7.7,'1111122,1111122,1111122' 
NDBC,ioos:station:NOAA.NDBC:PLSF1:1,2016-12-03T01:00:00Z,24.6930,-82.7730,10.0,8.8,40.0,9.3,'1111122,1111122,1111122' 
NDBC,ioos:station:NOAA.NDBC:PLSF1:1,2016-12-03T02:00:00Z,24.6930,-82.7730,10.0,8.8,40.0,9.3,'1111122,1111122,1111122' 
NDBC,ioos:station:NOAA.NDBC:PLSF1:1,2016-12-03T03:00:00Z,24.6930,-82.7730,10.0,7.2,50.0,8.2,'1111122,1111122,1111122' 
NDBC,ioos:station:NOAA.NDBC:PLSF1:1,2016-12-03T04:00:00Z,24.6930,-82.7730,10.0,9.8,60.0,10.8,'1111122,1111122,1111122' 
NDBC,ioos:station:NOAA.NDBC:PLSF1:1,2016-12-03T05:00:00Z,24.6930,-82.7730,10.0,9.3,70.0,10.3,'1111122,1111122,1111122' 
NDBC,ioos:station:NOAA.NDBC:PLSF1:1,2016-12-03T06:00:00Z,24.6930,-82.7730,10.0,9.3,80.0,9.8,'1111122,1111122,1111122' 
NDBC,ioos:station:NOAA.NDBC:PLSF1:1,2016-12-03T07:00:00Z,24.6930,-82.7730,10.0,8.2,70.0,8.8,'1111122,1111122,1111122' 
NDBC,ioos:station:NOAA.NDBC:PLSF1:1,2016-12-03T08:00:00Z,24.6930,-82.7730,10.0,9.3,70.0,9.8,'1111122,1111122,1111122' 
NDBC,ioos:station:NOAA.NDBC:PLSF1:1,2016-12-03T09:00:00Z,24.6930,-82.7730,10.0,8.8,70.0,10.3,'1111122,1111122,1111122' 
NDBC,ioos:station:NOAA.NDBC:PLSF1:1,2016-12-03T10:00:00Z,24.6930,-82.7730,10.0,9.8,60.0,10.3,'1111122,1111122,1111122' 
NDBC,ioos:station:NOAA.NDBC:PLSF1:1,2016-12-03T11:00:00Z,24.6930,-82.7730,10.0,9.3,60.0,10.3,'1111122,1111122,1111122' 
NDBC,ioos:station:NOAA.NDBC:PLSF1:1,2016-12-03T12:00:00Z,24.6930,-82.7730,10.0,10.3,60.0,11.3,'1111122,1111122,1111122' 
NDBC,ioos:station:NOAA.NDBC:PLSF1:1,2016-12-03T13:00:00Z,24.6930,-82.7730,10.0,10.3,70.0,11.3,'1111122,1111122,1111122' 
NDBC,ioos:station:NOAA.NDBC:PLSF1:1,2016-12-03T14:00:00Z,24.6930,-82.7730,10.0,9.8,70.0,11.3,'1111122,1111122,1111122' 
NDBC,ioos:station:NOAA.NDBC:PLSF1:1,2016-12-03T15:00:00Z,24.6930,-82.7730,10.0,9.3,80.0,10.3,'1111122,1111122,1111122' 
NDBC,ioos:station:NOAA.NDBC:PLSF1:1,2016-12-03T16:00:00Z,24.6930,-82.7730,10.0,9.3,80.0,10.8,'1111122,1111122,1111122' 
NDBC,ioos:station:NOAA.NDBC:PLSF1:1,2016-12-03T17:00:00Z,24.6930,-82.7730,10.0,10.3,90.0,11.3,'1111122,1111122,1111122' 
NDBC,ioos:station:NOAA.NDBC:PLSF1:1,2016-12-03T18:00:00Z,24.6930,-82.7730,10.0,8.8,90.0,9.8,'1111122,1111122,1111122' 
NDBC,ioos:station:NOAA.NDBC:PLSF1:1,2016-12-03T19:00:00Z,24.6930,-82.7730,10.0,8.8,90.0,10.3,'1111122,1111122,1111122' 
NDBC,ioos:station:NOAA.NDBC:PLSF1:1,2016-12-03T20:00:00Z,24.6930,-82.7730,10.0,9.8,90.0,10.3,'1111122,1111122,1111122' 
NDBC,ioos:station:NOAA.NDBC:PLSF1:1,2016-12-03T21:00:00Z,24.6930,-82.7730,10.0,10.3,90.0,11.3,'1111122,1111122,1111122' 
NDBC,ioos:station:NOAA.NDBC:PLSF1:1,2016-12-03T22:00:00Z,24.6930,-82.7730,10.0,9.8,90.0,10.8,'1111122,1111122,1111122' 
NDBC,ioos:station:NOAA.NDBC:PLSF1:1,2016-12-03T23:00:00Z,24.6930,-82.7730,10.0,9.8,90.0,11.8,'1111122,1111122,1111122' 
NDBC,ioos:station:NOAA.NDBC:PLSF1:1,2016-12-04T00:00:00Z,24.6930,-82.7730,10.0,10.8,90.0,11.8,'1111122,1111122,1111122' 
NDBC,ioos:station:NOAA.NDBC:PLSF1:1,2016-12-04T01:00:00Z,24.6930,-82.7730,10.0,10.8,100.0,11.8,'1111122,1111122,1111122' 
NDBC,ioos:station:NOAA.NDBC:PLSF1:1,2016-12-04T02:00:00Z,24.6930,-82.7730,10.0,10.3,90.0,11.3,'1111122,1111122,1111122' 
NDBC,ioos:station:NOAA.NDBC:PLSF1:1,2016-12-04T03:00:00Z,24.6930,-82.7730,10.0,11.8,90.0,12.9,'1111122,1111122,1111122' 
NDBC,ioos:station:NOAA.NDBC:PLSF1:1,2016-12-04T04:00:00Z,24.6930,-82.7730,10.0,12.4,90.0,13.4,'1111122,1111122,1111122' 
NDBC,ioos:station:NOAA.NDBC:PLSF1:1,2016-12-04T05:00:00Z,24.6930,-82.7730,10.0,11.8,90.0,13.4,'1111122,1111122,1111122' 
NDBC,ioos:station:NOAA.NDBC:PLSF1:1,2016-12-04T06:00:00Z,24.6930,-82.7730,10.0,11.8,90.0,13.4,'1111122,1111122,1111122' 
NDBC,ioos:station:NOAA.NDBC:PLSF1:1,2016-12-04T07:00:00Z,24.6930,-82.7730,10.0,11.8,90.0,12.9,'1111122,1111122,1111122' 
NDBC,ioos:station:NOAA.NDBC:PLSF1:1,2016-12-04T08:00:00Z,24.6930,-82.7730,10.0,10.3,90.0,11.3,'1111122,1111122,1111122' 
NDBC,ioos:station:NOAA.NDBC:PLSF1:1,2016-12-04T09:00:00Z,24.6930,-82.7730,10.0,9.8,90.0,11.3,'1111122,1111122,1111122' 
NDBC,ioos:station:NOAA.NDBC:PLSF1:1,2016-12-04T10:00:00Z,24.6930,-82.7730,10.0,9.8,100.0,11.3,'1111122,1111122,1111122' 
NDBC,ioos:station:NOAA.NDBC:PLSF1:1,2016-12-04T11:00:00Z,24.6930,-82.7730,10.0,9.8,90.0,10.8,'1111122,1111122,1111122' 
NDBC,ioos:station:NOAA.NDBC:PLSF1:1,2016-12-04T12:00:00Z,24.6930,-82.7730,10.0,9.3,90.0,10.3,'1111122,1111122,1111122' 
NDBC,ioos:station:NOAA.NDBC:PLSF1:1,2016-12-04T13:00:00Z,24.6930,-82.7730,10.0,8.8,90.0,9.8,'1111122,1111122,1111122' 
NDBC,ioos:station:NOAA.NDBC:PLSF1:1,2016-12-04T14:00:00Z,24.6930,-82.7730,10.0,8.8,90.0,9.8,'1111122,1111122,1111122' 
NDBC,ioos:station:NOAA.NDBC:PLSF1:1,2016-12-04T15:00:00Z,24.6930,-82.7730,10.0,8.2,90.0,9.8,'1111122,1111122,1111122' 
NDBC,ioos:station:NOAA.NDBC:PLSF1:1,2016-12-04T16:00:00Z,24.6930,-82.7730,10.0,7.7,100.0,8.8,'1111122,1111122,1111122' 
NDBC,ioos:station:NOAA.NDBC:PLSF1:1,2016-12-04T17:00:00Z,24.6930,-82.7730,10.0,8.2,100.0,9.3,'1111122,1111122,1111122' 
NDBC,ioos:station:NOAA.NDBC:PLSF1:1,2016-12-04T18:00:00Z,24.6930,-82.7730,10.0,7.7,90.0,8.8,'1111122,1111122,1111122' 
NDBC,ioos:station:NOAA.NDBC:PLSF1:1,2016-12-04T19:00:00Z,24.6930,-82.7730,10.0,7.7,110.0,8.2,'1111122,1111122,1111122' 
NDBC,ioos:station:NOAA.NDBC:PLSF1:1,2016-12-04T20:00:00Z,24.6930,-82.7730,10.0,8.8,90.0,9.3,'1111122,1111122,1111122' 
NDBC,ioos:station:NOAA.NDBC:PLSF1:1,2016-12-04T21:00:00Z,24.6930,-82.7730,10.0,8.2,100.0,9.3,'1111122,1111122,1111122' 
NDBC,ioos:station:NOAA.NDBC:PLSF1:1,2016-12-04T22:00:00Z,24.6930,-82.7730,10.0,7.7,90.0,8.2,'1111122,1111122,1111122' 
NDBC,ioos:station:NOAA.NDBC:PLSF1:1,2016-12-04T23:00:00Z,24.6930,-82.7730,10.0,7.2,100.0,7.7,'1111122,1111122,1111122' 
NDBC,ioos:station:NOAA.NDBC:PLSF1:1,2016-12-05T00:00:00Z,24.6930,-82.7730,10.0,7.7,110.0,8.8,'1111122,1111122,1111122' 
NDBC,ioos:station:NOAA.NDBC:PLSF1:1,2016-12-05T01:00:00Z,24.6930,-82.7730,10.0,6.7,110.0,7.2,'1111122,1111122,1111122' 
NDBC,ioos:station:NOAA.NDBC:PLSF1:1,2016-12-05T02:00:00Z,24.6930,-82.7730,10.0,7.7,120.0,8.8,'1111122,1111122,1111122' 
NDBC,ioos:station:NOAA.NDBC:PLSF1:1,2016-12-05T03:00:00Z,24.6930,-82.7730,10.0,7.7,120.0,8.8,'1111122,1111122,1111122' 
NDBC,ioos:station:NOAA.NDBC:PLSF1:1,2016-12-05T04:00:00Z,24.6930,-82.7730,10.0,8.8,130.0,9.8,'1111122,1111122,1111122' 
NDBC,ioos:station:NOAA.NDBC:PLSF1:1,2016-12-05T05:00:00Z,24.6930,-82.7730,10.0,9.3,120.0,9.8,'1111122,1111122,1111122' 
NDBC,ioos:station:NOAA.NDBC:PLSF1:1,2016-12-05T06:00:00Z,24.6930,-82.7730,10.0,8.8,130.0,9.3,'1111122,1111122,1111122' 
NDBC,ioos:station:NOAA.NDBC:PLSF1:1,2016-12-05T07:00:00Z,24.6930,-82.7730,10.0,7.2,120.0,7.7,'1111122,1111122,1111122' 
NDBC,ioos:station:NOAA.NDBC:PLSF1:1,2016-12-05T08:00:00Z,24.6930,-82.7730,10.0,7.2,120.0,8.2,'1111122,1111122,1111122' 
NDBC,ioos:station:NOAA.NDBC:PLSF1:1,2016-12-05T09:00:00Z,24.6930,-82.7730,10.0,7.2,120.0,7.7,'1111122,1111122,1111122' 
NDBC,ioos:station:NOAA.NDBC:PLSF1:1,2016-12-05T10:00:00Z,24.6930,-82.7730,10.0,7.2,130.0,7.7,'1111122,1111122,1111122' 
NDBC,ioos:station:NOAA.NDBC:PLSF1:1,2016-12-05T11:00:00Z,24.6930,-82.7730,10.0,7.2,140.0,7.7,'1111122,1111122,1111122' 
NDBC,ioos:station:NOAA.NDBC:PLSF1:1,2016-12-05T12:00:00Z,24.6930,-82.7730,10.0,6.7,140.0,7.2,'1111122,1111122,1111122' 
NDBC,ioos:station:NOAA.NDBC:PLSF1:1,2016-12-05T13:00:00Z,24.6930,-82.7730,10.0,6.7,140.0,7.2,'1111122,1111122,1111122' 
NDBC,ioos:station:NOAA.NDBC:PLSF1:1,2016-12-05T14:00:00Z,24.6930,-82.7730,10.0,7.2,160.0,7.7,'1111122,1111122,1111122' 
NDBC,ioos:station:NOAA.NDBC:PLSF1:1,2016-12-05T15:00:00Z,24.6930,-82.7730,10.0,8.2,170.0,9.3,'1111122,1111122,1111122' 
NDBC,ioos:station:NOAA.NDBC:PLSF1:1,2016-12-05T16:00:00Z,24.6930,-82.7730,10.0,10.3,150.0,11.3,'1111122,1111122,1111122' 
NDBC,ioos:station:NOAA.NDBC:PLSF1:1,2016-12-05T22:00:00Z,24.6930,-82.7730,10.0,8.2,150.0,8.8,'1111122,1111122,1111122' 
NDBC,ioos:station:NOAA.NDBC:PLSF1:1,2016-12-05T23:00:00Z,24.6930,-82.7730,10.0,6.7,140.0,7.7,'1111122,1111122,1111122' 
NDBC,ioos:station:NOAA.NDBC:PLSF1:1,2016-12-06T00:00:00Z,24.6930,-82.7730,10.0,6.7,150.0,7.2,'1111122,1111122,1111122' 
NDBC,ioos:station:NOAA.NDBC:PLSF1:1,2016-12-06T01:00:00Z,24.6930,-82.7730,10.0,6.7,140.0,7.2,'1111122,1111122,1111122' 
NDBC,ioos:station:NOAA.NDBC:PLSF1:1,2016-12-06T02:00:00Z,24.6930,-82.7730,10.0,6.2,160.0,6.7,'1111122,1111122,1111122' 
NDBC,ioos:station:NOAA.NDBC:PLSF1:1,2016-12-06T03:00:00Z,24.6930,-82.7730,10.0,6.2,160.0,6.7,'1111122,1111122,1111122' 
NDBC,ioos:station:NOAA.NDBC:PLSF1:1,2016-12-06T04:00:00Z,24.6930,-82.7730,10.0,7.7,170.0,8.2,'1111122,1111122,1111122' 
NDBC,ioos:station:NOAA.NDBC:PLSF1:1,2016-12-06T05:00:00Z,24.6930,-82.7730,10.0,6.2,170.0,6.7,'1111122,1111122,1111122' 
NDBC,ioos:station:NOAA.NDBC:PLSF1:1,2016-12-06T06:00:00Z,24.6930,-82.7730,10.0,7.2,190.0,8.8,'1111122,1111122,1111122' 
NDBC,ioos:station:NOAA.NDBC:PLSF1:1,2016-12-06T07:00:00Z,24.6930,-82.7730,10.0,7.2,190.0,7.7,'1111122,1111122,1111122' 
NDBC,ioos:station:NOAA.NDBC:PLSF1:1,2016-12-06T08:00:00Z,24.6930,-82.7730,10.0,7.2,170.0,7.7,'1111122,1111122,1111122' 
NDBC,ioos:station:NOAA.NDBC:PLSF1:1,2016-12-06T09:00:00Z,24.6930,-82.7730,10.0,5.7,170.0,5.7,'1111122,1111122,1111122' 
NDBC,ioos:station:NOAA.NDBC:PLSF1:1,2016-12-06T10:00:00Z,24.6930,-82.7730,10.0,6.7,180.0,7.2,'1111122,1111122,1111122' 
NDBC,ioos:station:NOAA.NDBC:PLSF1:1,2016-12-06T11:00:00Z,24.6930,-82.7730,10.0,6.2,190.0,6.7,'1111122,1111122,1111122' 
NDBC,ioos:station:NOAA.NDBC:PLSF1:1,2016-12-06T12:00:00Z,24.6930,-82.7730,10.0,7.2,180.0,7.7,'1111122,1111122,1111122' 
NDBC,ioos:station:NOAA.NDBC:PLSF1:1,2016-12-06T13:00:00Z,24.6930,-82.7730,10.0,7.2,180.0,7.7,'1111122,1111122,1111122' 
NDBC,ioos:station:NOAA.NDBC:PLSF1:1,2016-12-06T14:00:00Z,24.6930,-82.7730,10.0,5.7,190.0,6.2,'1111122,1111122,1111122' 
NDBC,ioos:station:NOAA.NDBC:PLSF1:1,2016-12-06T15:00:00Z,24.6930,-82.7730,10.0,5.1,200.0,5.7,'1111122,1111122,1111122' 
NDBC,ioos:station:NOAA.NDBC:PLSF1:1,2016-12-06T16:00:00Z,24.6930,-82.7730,10.0,5.1,190.0,5.7,'1111122,1111122,1111122' 
NDBC,ioos:station:NOAA.NDBC:PLSF1:1,2016-12-06T17:00:00Z,24.6930,-82.7730,10.0,5.1,190.0,5.7,'1111122,1111122,1111122' 
NDBC,ioos:station:NOAA.NDBC:PLSF1:1,2016-12-06T18:00:00Z,24.6930,-82.7730,10.0,6.2,190.0,6.7,'1111122,1111122,1111122' 
NDBC,ioos:station:NOAA.NDBC:PLSF1:1,2016-12-06T20:00:00Z,24.6930,-82.7730,10.0,5.1,200.0,5.7,'1111122,1111122,1111122' 
NDBC,ioos:station:NOAA.NDBC:PLSF1:1,2016-12-06T21:00:00Z,24.6930,-82.7730,10.0,3.1,180.0,3.6,'1111122,1111122,1111122' 
NDBC,ioos:station:NOAA.NDBC:PLSF1:1,2016-12-06T22:00:00Z,24.6930,-82.7730,10.0,5.1,210.0,5.1,'1111122,1111122,1111122' 
NDBC,ioos:station:NOAA.NDBC:PLSF1:1,2016-12-06T23:00:00Z,24.6930,-82.7730,10.0,5.1,220.0,5.1,'1111122,1111122,1111122' 
NDBC,ioos:station:NOAA.NDBC:PLSF1:1,2016-12-07T00:00:00Z,24.6930,-82.7730,10.0,2.1,200.0,2.6,'1111122,1111122,1111122' 
NDBC,ioos:station:NOAA.NDBC:PLSF1:1,2016-12-07T03:00:00Z,24.6930,-82.7730,10.0,0.5,120.0,0.5,'1111122,1111122,1111122' 
NDBC,ioos:station:NOAA.NDBC:PLSF1:1,2016-12-07T04:00:00Z,24.6930,-82.7730,10.0,1.0,140.0,1.5,'1111122,1111122,1111122' 
NDBC,ioos:station:NOAA.NDBC:PLSF1:1,2016-12-07T05:00:00Z,24.6930,-82.7730,10.0,1.0,150.0,1.5,'1111122,1111122,1111122' 
NDBC,ioos:station:NOAA.NDBC:PLSF1:1,2016-12-07T06:00:00Z,24.6930,-82.7730,10.0,0.0,-9999.0,0.5,'1114422,1111122,1111122' 
NDBC,ioos:station:NOAA.NDBC:PLSF1:1,2016-12-07T08:00:00Z,24.6930,-82.7730,10.0,0.0,-9999.0,0.5,'1114422,1111122,1111122' 
NDBC,ioos:station:NOAA.NDBC:PLSF1:1,2016-12-07T09:00:00Z,24.6930,-82.7730,10.0,0.0,-9999.0,0.5,'1114422,1111122,1111122' 
NDBC,ioos:station:NOAA.NDBC:PLSF1:1,2016-12-07T10:00:00Z,24.6930,-82.7730,10.0,1.5,350.0,1.5,'1111122,1111122,1111122' 
NDBC,ioos:station:NOAA.NDBC:PLSF1:1,2016-12-07T11:00:00Z,24.6930,-82.7730,10.0,2.1,10.0,2.1,'1111122,1111122,1111122' 
NDBC,ioos:station:NOAA.NDBC:PLSF1:1,2016-12-07T12:00:00Z,24.6930,-82.7730,10.0,1.5,110.0,1.5,'1111122,1111122,1111122' 
NDBC,ioos:station:NOAA.NDBC:PLSF1:1,2016-12-07T13:00:00Z,24.6930,-82.7730,10.0,3.1,80.0,3.1,'1111122,1111122,1111122' 
NDBC,ioos:station:NOAA.NDBC:PLSF1:1,2016-12-07T14:00:00Z,24.6930,-82.7730,10.0,1.5,110.0,1.5,'1111122,1111122,1111122' 
NDBC,ioos:station:NOAA.NDBC:PLSF1:1,2016-12-07T15:00:00Z,24.6930,-82.7730,10.0,3.1,70.0,3.1,'1111122,1111122,1111122' 
NDBC,ioos:station:NOAA.NDBC:PLSF1:1,2016-12-07T16:00:00Z,24.6930,-82.7730,10.0,4.6,90.0,5.1,'1111122,1111122,1111122' 
NDBC,ioos:station:NOAA.NDBC:PLSF1:1,2016-12-07T17:00:00Z,24.6930,-82.7730,10.0,3.6,100.0,4.1,'1111122,1111122,1111122' 
NDBC,ioos:station:NOAA.NDBC:PLSF1:1,2016-12-07T18:00:00Z,24.6930,-82.7730,10.0,2.6,100.0,3.1,'1111122,1111122,1111122' 
NDBC,ioos:station:NOAA.NDBC:PLSF1:1,2016-12-07T19:00:00Z,24.6930,-82.7730,10.0,4.1,50.0,4.1,'1111122,1111122,1111122' 
NDBC,ioos:station:NOAA.NDBC:PLSF1:1,2016-12-07T20:00:00Z,24.6930,-82.7730,10.0,3.6,70.0,4.1,'1111122,1111122,1111122' 
NDBC,ioos:station:NOAA.NDBC:PLSF1:1,2016-12-07T21:00:00Z,24.6930,-82.7730,10.0,3.1,60.0,3.6,'1111122,1111122,1111122' 
NDBC,ioos:station:NOAA.NDBC:PLSF1:1,2016-12-07T22:00:00Z,24.6930,-82.7730,10.0,4.1,50.0,4.6,'1111122,1111122,1111122' 
NDBC,ioos:station:NOAA.NDBC:PLSF1:1,2016-12-07T23:00:00Z,24.6930,-82.7730,10.0,3.6,90.0,3.6,'1111122,1111122,1111122' 
NDBC,ioos:station:NOAA.NDBC:PLSF1:1,2016-12-08T00:00:00Z,24.6930,-82.7730,10.0,3.6,90.0,4.1,'1111122,1111122,1111122' 
NDBC,ioos:station:NOAA.NDBC:PLSF1:1,2016-12-08T01:00:00Z,24.6930,-82.7730,10.0,3.6,80.0,4.1,'1111122,1111122,1111122' 
NDBC,ioos:station:NOAA.NDBC:PLSF1:1,2016-12-08T02:00:00Z,24.6930,-82.7730,10.0,3.6,90.0,4.1,'1111122,1111122,1111122' 
NDBC,ioos:station:NOAA.NDBC:PLSF1:1,2016-12-08T04:00:00Z,24.6930,-82.7730,10.0,4.1,50.0,4.1,'1111122,1111122,1111122' 
NDBC,ioos:station:NOAA.NDBC:PLSF1:1,2016-12-08T05:00:00Z,24.6930,-82.7730,10.0,3.1,80.0,3.6,'1111122,1111122,1111122' 
NDBC,ioos:station:NOAA.NDBC:PLSF1:1,2016-12-08T06:00:00Z,24.6930,-82.7730,10.0,3.6,80.0,4.1,'1111122,1111122,1111122' 
NDBC,ioos:station:NOAA.NDBC:PLSF1:1,2016-12-08T08:00:00Z,24.6930,-82.7730,10.0,3.6,80.0,4.1,'1111122,1111122,1111122' 
NDBC,ioos:station:NOAA.NDBC:PLSF1:1,2016-12-08T09:00:00Z,24.6930,-82.7730,10.0,4.1,60.0,4.6,'1111122,1111122,1111122' 
NDBC,ioos:station:NOAA.NDBC:PLSF1:1,2016-12-08T10:00:00Z,24.6930,-82.7730,10.0,3.6,70.0,3.6,'1111122,1111122,1111122' 
NDBC,ioos:station:NOAA.NDBC:PLSF1:1,2016-12-08T11:00:00Z,24.6930,-82.7730,10.0,5.1,50.0,6.2,'1111122,1111122,1111122' 
NDBC,ioos:station:NOAA.NDBC:PLSF1:1,2016-12-08T12:00:00Z,24.6930,-82.7730,10.0,5.7,50.0,5.7,'1111122,1111122,1111122' 
NDBC,ioos:station:NOAA.NDBC:PLSF1:1,2016-12-08T13:00:00Z,24.6930,-82.7730,10.0,5.7,30.0,6.2,'1111122,1111122,1111122' 
NDBC,ioos:station:NOAA.NDBC:PLSF1:1,2016-12-08T14:00:00Z,24.6930,-82.7730,10.0,6.2,40.0,6.7,'1111122,1111122,1111122' 
NDBC,ioos:station:NOAA.NDBC:PLSF1:1,2016-12-08T15:00:00Z,24.6930,-82.7730,10.0,6.7,50.0,7.2,'1111122,1111122,1111122' 
NDBC,ioos:station:NOAA.NDBC:PLSF1:1,2016-12-08T16:00:00Z,24.6930,-82.7730,10.0,6.7,60.0,7.2,'1111122,1111122,1111122' 
NDBC,ioos:station:NOAA.NDBC:PLSF1:1,2016-12-08T17:00:00Z,24.6930,-82.7730,10.0,5.7,60.0,6.2,'1111122,1111122,1111122' 
NDBC,ioos:station:NOAA.NDBC:PLSF1:1,2016-12-08T18:00:00Z,24.6930,-82.7730,10.0,6.7,40.0,7.2,'1111122,1111122,1111122' 
NDBC,ioos:station:NOAA.NDBC:PLSF1:1,2016-12-08T19:00:00Z,24.6930,-82.7730,10.0,6.2,40.0,6.2,'1111122,1111122,1111122' 
NDBC,ioos:station:NOAA.NDBC:PLSF1:1,2016-12-08T20:00:00Z,24.6930,-82.7730,10.0,8.2,30.0,8.8,'1111122,1111122,1111122' 
NDBC,ioos:station:NOAA.NDBC:PLSF1:1,2016-12-08T21:00:00Z,24.6930,-82.7730,10.0,8.2,30.0,8.8,'1111122,1111122,1111122' 
NDBC,ioos:station:NOAA.NDBC:PLSF1:1,2016-12-08T22:00:00Z,24.6930,-82.7730,10.0,9.3,30.0,9.8,'1111122,1111122,1111122' 
NDBC,ioos:station:NOAA.NDBC:PLSF1:1,2016-12-08T23:00:00Z,24.6930,-82.7730,10.0,8.8,30.0,10.3,'1111122,1111122,1111122' 
NDBC,ioos:station:NOAA.NDBC:PLSF1:1,2016-12-09T00:00:00Z,24.6930,-82.7730,10.0,9.8,20.0,10.3,'1111122,1111122,1111122' 
NDBC,ioos:station:NOAA.NDBC:PLSF1:1,2016-12-09T01:00:00Z,24.6930,-82.7730,10.0,10.3,30.0,10.8,'1111122,1111122,1111122' 
NDBC,ioos:station:NOAA.NDBC:PLSF1:1,2016-12-09T02:00:00Z,24.6930,-82.7730,10.0,9.8,20.0,10.8,'1111122,1111122,1111122' 
NDBC,ioos:station:NOAA.NDBC:PLSF1:1,2016-12-09T03:00:00Z,24.6930,-82.7730,10.0,10.8,20.0,11.3,'1111122,1111122,1111122' 
NDBC,ioos:station:NOAA.NDBC:PLSF1:1,2016-12-09T04:00:00Z,24.6930,-82.7730,10.0,9.3,30.0,9.8,'1111122,1111122,1111122' 
NDBC,ioos:station:NOAA.NDBC:PLSF1:1,2016-12-09T05:00:00Z,24.6930,-82.7730,10.0,9.8,20.0,10.8,'1111122,1111122,1111122' 
NDBC,ioos:station:NOAA.NDBC:PLSF1:1,2016-12-09T06:00:00Z,24.6930,-82.7730,10.0,8.8,20.0,9.8,'1111122,1111122,1111122' 
NDBC,ioos:station:NOAA.NDBC:PLSF1:1,2016-12-09T07:00:00Z,24.6930,-82.7730,10.0,10.3,10.0,11.3,'1111122,1111122,1111122' 
NDBC,ioos:station:NOAA.NDBC:PLSF1:1,2016-12-09T09:00:00Z,24.6930,-82.7730,10.0,12.4,30.0,13.4,'1111122,1111122,1111122' 
NDBC,ioos:station:NOAA.NDBC:PLSF1:1,2016-12-09T10:00:00Z,24.6930,-82.7730,10.0,12.9,40.0,14.9,'1111122,1111122,1111122' 
NDBC,ioos:station:NOAA.NDBC:PLSF1:1,2016-12-09T11:00:00Z,24.6930,-82.7730,10.0,12.4,30.0,13.4,'1111122,1111122,1111122' 
NDBC,ioos:station:NOAA.NDBC:PLSF1:1,2016-12-09T12:00:00Z,24.6930,-82.7730,10.0,11.8,40.0,12.9,'1111122,1111122,1111122' 
NDBC,ioos:station:NOAA.NDBC:PLSF1:1,2016-12-09T13:00:00Z,24.6930,-82.7730,10.0,11.3,40.0,12.9,'1111122,1111122,1111122' 
NDBC,ioos:station:NOAA.NDBC:PLSF1:1,2016-12-09T14:00:00Z,24.6930,-82.7730,10.0,10.3,50.0,11.3,'1111122,1111122,1111122' 
NDBC,ioos:station:NOAA.NDBC:PLSF1:1,2016-12-09T15:00:00Z,24.6930,-82.7730,10.0,11.3,50.0,11.8,'1111122,1111122,1111122' 
NDBC,ioos:station:NOAA.NDBC:PLSF1:1,2016-12-09T16:00:00Z,24.6930,-82.7730,10.0,11.8,40.0,12.4,'1111122,1111122,1111122' 
NDBC,ioos:station:NOAA.NDBC:PLSF1:1,2016-12-09T17:00:00Z,24.6930,-82.7730,10.0,10.3,50.0,11.3,'1111122,1111122,1111122' 
NDBC,ioos:station:NOAA.NDBC:PLSF1:1,2016-12-09T18:00:00Z,24.6930,-82.7730,10.0,10.3,40.0,11.8,'1111122,1111122,1111122' 
NDBC,ioos:station:NOAA.NDBC:PLSF1:1,2016-12-09T19:00:00Z,24.6930,-82.7730,10.0,9.8,30.0,11.3,'1111122,1111122,1111122' 